Temperature
26 26 25 24 23 22 22 22 21 21 19 17 16 15 13 12 11 11 11 11 10 10 10 10 10 10 9 9 9 9 9 9 9 9 9 9 10 10 10 11 11 12 12 12
25 25 24 22 21 20 20 19 19 18 17 16 15 13 12 12 11 11 12 12 11 11 11 10 10 10 10 9 9 9 9 9 9 9 9 9 9 9 10 10 11 11 11 12
25 24 23 21 18 18 18 18 18 17 16 15 15 14 13 13 12 12 12 12 11 11 11 10 10 10 10 9 9 9 9 9 9 9 9 9 9 9 9 9 10 10 11 11
24 23 22 17 17 17 17 17 17 16 16 15 15 14 13 13 13 12 12 11 11 10 10 10 10 10 9 9 9 9 9 9 9 9 9 9 9 9 8 9 9 10 10 11
23 23 20 16 17 16 16 16 16 15 16 15 14 13 14 14 13 11 11 10 10 10 10 10 9 9 9 9 9 9 9 9 9 9 9 9 9 9 8 8 8 9 9 10
22 20 20 16 16 15 16 16 15 15 14 14 13 14 14 12 11 11 10 10 10 9 9 9 9 9 9 9 8 8 8 8 8 8 8 8 8 8 8 8 8 8 9 9
20 20 18 16 16 17 16 16 14 13 13 12 12 12 11 11 11 10 10 9 9 9 9 9 8 8 8 8 8 8 8 8 8 7 7 7 7 8 8 8 8 8 8 9
19 18 17 16 16 15 14 13 13 12 12 12 11 11 11 10 10 10 9 9 9 9 9 8 8 8 8 7 7 7 7 7 7 7 7 8 8 8 8 8 8 8 8 8
18 18 15 15 14 14 13 12 12 12 11 11 11 11 10 10 10 9 9 9 9 8 8 8 8 7 7 7 7 6 6 6 6 6 7 7 7 8 8 8 8 8 8 8
17 17 15 15 14 13 12 12 11 11 10 10 10 10 10 10 9 9 9 9 8 8 8 7 7 6 6 6 6 6 6 6 6 6 6 6 7 7 8 8 8 8 7 7
16 16 15 15 14 12 11 11 11 10 10 10 10 10 9 9 9 9 8 8 8 7 6 6 6 5 5 5 5 5 5 5 5 5 6 6 7 7 8 8 8 7 7 7
16 15 14 13 12 11 11 10 10 10 10 10 9 9 9 9 9 8 8 7 7 6 5 5 5 5 5 5 5 5 5 5 5 5 5 6 6 7 7 7 7 7 7 7
14 13 12 12 11 11 10 10 10 10 10 9 9 9 9 8 8 8 7 6 6 5 4 4 4 4 4 4 4 4 4 4 4 5 5 5 6 7 7 7 7 7 7 7
12 12 12 11 11 10 10 10 10 10 10 9 9 9 8 8 7 7 6 5 4 4 4 4 4 4 4 4 4 4 4 4 4 5 5 5 6 6 6 7 7 6 6 7
12 11 11 10 10 10 10 10 9 9 9 9 8 8 8 7 6 5 5 4 4 3 3 4 4 4 4 4 4 4 4 4 4 5 5 5 5 6 6 6 6 6 6 7
11 11 11 10 10 10 9 9 9 9 8 8 8 7 7 6 5 4 4 3 3 3 4 4 4 4 4 4 4 4 4 4 4 5 5 5 6 6 6 6 6 6 6 6
11 11 10 10 9 9 9 8 8 8 8 7 7 6 5 4 4 4 3 3 3 4 4 4 4 4 4 4 4 4 4 4 4 4 5 6 6 6 6 6 6 6 6 7
10 10 10 9 9 8 8 8 7 7 7 6 6 5 4 4 3 3 3 3 4 4 4 4 4 4 4 4 4 4 4 5 5 5 5 6 6 6 6 6 6 7 7 7
10 10 9 9 8 8 7 7 7 6 6 6 5 4 3 3 3 3 4 4 4 4 4 4 4 4 4 4 4 4 5 5 5 5 6 6 6 6 6 6 7 7 7 7
9 9 9 8 8 7 7 7 6 6 6 5 4 3 3 3 4 4 4 4 4 4 4 5 5 5 5 5 5 5 5 5 5 6 6 6 6 6 7 7 7 7 8 8
9 9 8 8 7 7 6 6 6 6 5 4 4 3 3 4 4 4 4 4 4 5 5 5 5 5 5 5 5 5 6 6 6 6 6 7 7 7 7 7 7 8 8 9
8 8 7 7 6 6 6 6 6 5 5 4 3 3 4 4 4 4 4 4 4 5 5 6 6 6 6 5 5 6 6 6 6 6 7 7 7 7 7 8 8 8 9 9
8 7 7 6 6 6 6 6 6 5 4 4 4 4 3 3 4 4 4 4 5 5 6 6 6 6 6 6 6 6 6 7 7 7 7 7 7 8 8 8 8 9 9 10
7 7 6 6 6 6 6 6 5 4 4 4 4 4 3 3 4 4 4 5 5 6 6 6 6 6 6 6 6 7 7 7 7 7 7 8 8 8 9 9 9 9 10 10
7 6 6 5 6 6 6 5 5 4 4 4 4 4 3 3 4 4 4 5 6 6 6 7 7 7 7 7 7 7 7 8 8 8 8 9 9 9 10 10 10 10 10 11
6 6 6 5 6 5 5 5 4 4 4 4 4 4 3 4 4 4 5 5 6 6 7 7 7 7 7 8 8 8 8 8 8 9 9 10 10 10 11 11 11 11 11 11
7 7 6 6 6 5 5 5 4 4 4 3 3 3 3 4 4 4 5 5 6 6 7 7 7 8 8 8 8 9 9 9 9 10 10 11 11 11 11 11 12 12 12 12
Wind_Speed
11 9 7 5 5 6 8 9 10 10 6 4 6 10 11 12 13 15 14 14 13 13 13 13 13 13 13 13 12 12 12 12 12 12 12 13 13 14 15 15 14 14 14 12
9 4 3 2 4 4 4 6 8 8 3 4 9 11 12 14 16 17 17 16 16 17 18 17 17 17 16 16 16 15 15 16 15 14 14 13 13 14 15 15 14 13 13 13
9 3 8 3 5 7 6 6 9 9 6 11 15 16 16 18 19 19 19 19 20 21 20 20 20 19 19 19 18 18 18 18 17 16 16 15 14 14 14 14 13 12 13 13
9 9 9 6 5 7 8 8 6 6 9 15 18 19 20 21 19 18 21 23 23 22 22 22 22 21 21 21 20 19 19 19 18 18 18 16 15 15 14 13 12 11 12 12
7 11 1 5 5 7 9 11 4 8 17 21 22 24 21 17 19 22 24 24 24 24 24 24 23 23 22 21 21 20 20 19 19 18 18 17 17 15 13 12 12 11 11 12
7 9 6 4 6 7 8 8 5 17 22 23 25 23 20 22 25 25 25 24 24 25 25 24 24 23 23 22 22 21 20 20 19 18 18 18 17 16 13 11 12 11 11 11
8 7 2 5 7 11 10 12 18 20 22 24 24 23 26 27 26 26 26 26 26 25 24 23 23 22 23 23 23 22 20 19 19 19 18 18 18 16 14 12 11 10 11 9
7 6 2 7 9 9 13 17 19 22 24 25 26 27 27 28 27 27 27 27 27 25 24 23 22 23 24 24 23 22 21 20 20 19 18 17 16 15 14 12 11 10 9 8
5 4 3 6 9 12 15 19 21 22 24 26 27 28 29 28 28 27 27 27 25 25 25 23 22 22 24 23 22 22 21 21 20 19 18 17 17 16 14 12 10 9 7 6
4 3 7 12 13 15 18 21 23 23 25 26 28 29 30 28 27 27 27 26 25 25 25 24 22 21 21 21 21 21 21 20 18 18 17 17 15 14 13 11 10 8 6 6
6 8 13 12 17 20 21 22 23 24 25 27 28 30 29 27 27 26 26 26 25 23 23 24 22 21 21 20 20 20 20 18 17 16 16 15 15 13 13 11 8 7 7 6
7 11 14 20 20 22 22 23 24 27 28 27 27 29 29 27 26 26 27 26 24 24 24 24 23 22 21 21 20 19 17 16 14 13 13 13 13 13 12 11 8 10 10 9
9 15 18 21 21 22 21 24 26 27 28 29 26 27 28 27 26 27 27 27 25 24 24 24 24 23 21 20 19 17 16 15 12 12 12 12 12 11 9 9 11 11 12 13
12 15 18 20 22 22 24 25 25 27 27 27 27 27 27 27 28 28 27 26 24 24 24 24 23 23 21 19 17 16 15 14 13 12 11 11 11 11 9 8 7 6 8 12
14 16 18 20 22 23 24 26 27 27 26 27 26 27 27 28 28 27 26 25 23 24 24 23 22 20 18 16 15 14 11 9 10 10 10 10 10 9 8 8 6 4 4 6
16 17 18 20 22 25 26 27 27 27 28 27 27 27 27 27 27 26 25 23 23 24 23 22 20 17 15 13 11 9 8 10 10 8 8 9 9 8 8 7 5 5 6 8
16 18 20 22 23 25 26 26 26 26 27 28 28 28 27 27 26 25 24 23 23 23 21 18 16 14 11 9 7 6 6 7 10 9 9 8 8 7 7 6 5 6 8 13
15 17 19 21 23 25 26 26 26 26 26 27 27 26 26 26 25 25 25 24 23 20 17 14 13 12 9 7 5 4 4 4 5 6 7 6 6 6 6 5 6 7 9 13
16 18 20 21 22 22 23 24 25 25 25 25 25 25 25 25 24 24 23 23 21 18 16 15 12 9 7 5 4 3 3 3 4 5 5 5 6 5 5 6 6 8 12 14
16 18 20 22 22 22 22 23 24 23 24 24 24 24 24 25 24 23 22 18 14 14 16 14 11 7 5 3 4 2 2 3 4 4 4 5 5 5 5 6 7 11 14 15
17 18 20 21 21 21 22 22 22 23 24 23 23 23 24 24 23 21 19 17 16 16 16 12 7 5 4 4 4 3 2 3 3 4 4 4 3 4 5 6 9 12 14 15
16 17 19 20 20 21 20 20 21 23 23 22 23 23 23 23 22 20 18 15 16 17 13 9 6 6 6 7 4 4 3 3 3 3 3 2 2 3 4 8 10 12 14 15
14 16 17 18 19 20 20 20 21 21 21 22 22 22 22 21 17 17 17 16 16 19 13 8 8 7 8 6 4 4 4 4 3 2 1 1 2 3 7 11 11 12 14 15
14 15 16 16 17 18 18 20 20 18 20 20 20 21 19 17 16 15 14 18 19 18 11 9 10 9 8 4 4 4 4 3 2 0 1 2 3 6 9 10 11 12 14 16
13 14 14 15 15 15 16 18 19 19 19 18 21 21 18 14 15 16 16 17 20 17 12 10 9 9 6 4 3 3 3 2 1 1 3 4 7 9 9 11 12 13 13 13
12 11 11 12 12 13 14 14 14 15 16 16 18 17 17 16 17 16 15 17 19 18 14 11 11 8 6 6 4 3 2 2 2 3 5 7 9 10 10 11 14 12 12 12
10 10 9 10 11 12 13 13 14 15 15 16 17 17 17 17 17 18 18 16 15 14 13 12 11 10 8 8 6 5 4 4 5 5 7 8 9 10 11 12 11 11 11 11
Wind_Direction
285 294 288 289 305 309 302 308 307 324 341 36 358 334 323 315 312 308 305 300 296 294 296 297 298 298 296 294 293 292 290 290 290 291 297 301 307 311 308 298 282 264 254 249
279 282 243 137 18 349 342 336 328 319 326 16 332 318 308 306 305 303 303 303 303 302 303 303 303 301 300 297 295 292 289 289 289 288 288 292 297 303 306 302 291 275 254 244
291 276 248 217 26 1 344 331 325 317 334 331 319 316 313 310 304 302 306 309 308 307 305 303 301 300 297 296 294 291 289 288 287 285 285 287 292 298 304 305 298 286 264 246
295 290 279 77 42 1 331 312 300 297 316 320 316 314 308 299 300 308 311 309 306 304 302 300 299 298 296 293 291 289 287 285 285 284 282 282 284 289 296 302 300 292 276 253
307 301 178 106 30 356 326 310 308 313 320 319 318 311 303 315 323 313 307 304 302 300 299 299 297 295 293 291 289 287 285 285 284 284 283 280 279 282 288 294 297 293 283 262
317 309 316 73 15 336 300 287 14 329 320 319 317 311 313 322 313 306 304 303 301 299 297 295 294 294 292 289 286 284 284 283 283 282 280 277 276 278 279 282 287 291 284 268
323 310 71 38 344 323 305 325 330 320 316 315 312 307 307 309 308 306 304 302 300 298 296 294 294 292 288 286 284 283 282 281 279 277 276 273 270 269 269 273 282 287 285 271
326 313 47 13 339 334 314 314 314 315 314 312 309 306 307 307 307 306 304 303 302 299 296 295 293 289 286 284 284 283 280 277 275 273 272 271 265 262 261 266 273 278 280 272
333 339 14 337 317 313 313 313 314 315 313 312 310 308 309 308 307 305 304 302 301 299 297 295 292 288 286 287 287 284 280 276 274 271 268 266 264 260 255 253 261 272 277 262
300 297 312 315 314 320 322 317 314 313 312 311 309 308 308 308 307 306 304 303 302 300 297 296 294 290 287 287 285 281 277 274 271 268 265 260 256 254 250 249 253 264 269 257
291 311 315 314 325 324 320 315 312 312 311 310 309 308 308 307 306 306 305 303 301 299 298 296 294 290 287 285 281 278 274 270 267 263 263 262 255 249 249 247 249 259 266 255
323 329 315 315 321 319 317 316 315 314 312 311 310 308 308 307 307 305 304 303 303 301 298 296 294 289 286 282 277 273 269 265 261 257 257 257 253 246 224 230 201 212 232 234
305 313 312 311 314 318 316 314 315 314 313 312 312 311 310 308 307 305 305 305 305 303 299 296 293 289 285 281 275 269 264 261 256 253 251 252 250 246 238 219 208 213 220 218
306 310 310 315 317 316 316 316 316 315 314 314 314 313 311 309 309 309 308 307 305 302 299 296 293 291 289 284 276 268 261 255 249 247 246 247 247 245 239 236 229 230 208 198
314 316 312 313 314 317 320 320 319 318 319 318 317 315 314 314 312 311 309 307 305 302 300 298 296 296 295 288 279 267 257 247 242 242 242 242 241 240 235 233 236 232 183 169
314 313 315 318 320 321 322 323 322 320 320 320 319 319 318 316 313 311 309 309 307 305 304 303 301 301 299 293 283 269 254 240 240 242 239 239 237 234 230 227 228 218 187 163
316 320 323 324 323 323 323 323 321 320 320 320 320 321 320 318 314 312 312 311 309 306 305 307 311 311 308 301 286 267 250 228 218 232 236 236 234 230 227 223 218 197 182 163
316 318 320 322 323 322 322 323 322 321 321 321 322 323 321 318 315 314 314 315 315 313 315 320 325 322 323 321 303 274 247 231 222 229 233 234 232 226 222 220 205 188 166 157
320 321 322 323 323 322 321 321 321 321 322 324 325 323 319 316 315 316 317 319 321 324 329 333 327 318 327 337 316 271 247 235 234 232 233 225 229 226 224 211 192 175 161 161
320 322 324 324 324 324 322 322 323 322 324 327 326 322 320 320 321 322 323 322 323 328 327 328 329 331 333 356 317 299 270 250 241 233 230 231 228 223 204 191 180 163 162 167
324 325 326 325 325 324 324 325 323 324 328 330 327 324 322 323 325 327 327 329 332 334 330 318 322 337 348 345 297 294 276 265 255 251 243 234 213 190 186 178 160 160 162 168
325 325 325 325 324 324 326 324 326 330 333 331 327 326 327 328 329 329 328 332 332 332 330 328 342 360 344 318 308 310 301 289 271 259 255 233 178 174 174 151 148 156 163 168
324 325 324 325 324 323 323 328 334 336 333 330 329 330 331 330 330 332 333 333 334 332 332 336 347 337 313 300 305 306 301 295 290 278 259 178 162 160 148 143 149 158 164 167
323 324 324 325 324 323 329 334 335 334 332 330 331 334 335 332 332 335 331 328 333 333 337 337 325 317 298 294 303 306 302 301 302 309 145 161 157 147 142 144 151 157 160 165
323 323 325 328 327 330 331 334 335 336 336 335 336 339 340 336 335 335 334 337 340 340 343 343 331 319 313 321 323 316 315 334 338 149 161 154 146 142 143 145 147 149 154 163
322 322 326 323 326 329 335 337 336 337 336 337 339 339 340 341 341 341 341 343 347 347 350 350 349 344 353 357 0 5 22 75 117 140 135 134 133 132 133 136 139 143 149 156
321 326 328 332 339 342 339 337 336 336 338 342 338 339 343 345 346 346 347 349 351 352 354 354 355 358 6 9 16 30 51 71 87 99 106 110 116 120 126 129 130 134 140 143
Height
1496 1494 1496 1500 1503 1504 1503 1504 1506 1505 1509 1517 1522 1524 1524 1522 1519 1516 1512 1508 1505 1501 1498 1495 1491 1488 1484 1480 1477 1473 1470 1467 1463 1460 1457 1454 1451 1449 1446 1444 1442 1441 1440 1440
1498 1496 1498 1507 1511 1511 1513 1513 1512 1513 1518 1522 1524 1524 1521 1519 1515 1511 1507 1503 1500 1497 1493 1490 1486 1482 1479 1475 1472 1468 1465 1461 1458 1455 1453 1450 1447 1443 1440 1438 1435 1434 1433 1433
1498 1495 1500 1511 1522 1520 1520 1518 1518 1517 1521 1522 1521 1519 1516 1513 1509 1505 1502 1498 1495 1491 1488 1484 1480 1476 1472 1468 1465 1462 1458 1455 1452 1449 1446 1444 1442 1438 1435 1432 1429 1426 1426 1426
1499 1501 1509 1529 1526 1526 1523 1520 1519 1521 1521 1520 1517 1514 1512 1507 1502 1499 1497 1493 1489 1485 1480 1476 1472 1468 1464 1461 1457 1454 1450 1447 1444 1442 1439 1437 1435 1432 1429 1426 1423 1420 1419 1419
1504 1503 1510 1527 1527 1528 1527 1520 1519 1521 1519 1517 1513 1509 1503 1500 1499 1496 1492 1487 1482 1477 1473 1468 1464 1460 1455 1452 1448 1445 1442 1439 1436 1434 1431 1429 1428 1426 1423 1420 1417 1414 1412 1412
1509 1514 1514 1531 1529 1529 1528 1518 1521 1520 1517 1514 1510 1501 1496 1497 1494 1489 1484 1479 1474 1469 1464 1459 1454 1451 1446 1442 1439 1436 1433 1430 1428 1425 1423 1421 1419 1418 1416 1414 1411 1409 1406 1405
1515 1515 1520 1529 1529 1527 1524 1521 1521 1520 1516 1512 1507 1502 1496 1491 1486 1481 1476 1471 1465 1459 1454 1449 1445 1441 1436 1432 1429 1426 1423 1420 1418 1416 1414 1412 1411 1410 1408 1407 1405 1403 1400 1399
1518 1521 1528 1531 1527 1528 1528 1525 1521 1517 1513 1507 1502 1495 1489 1484 1478 1473 1467 1461 1456 1450 1444 1440 1435 1431 1425 1421 1418 1416 1413 1410 1408 1406 1405 1404 1402 1401 1401 1400 1399 1397 1395 1393
1526 1528 1531 1531 1530 1529 1526 1522 1518 1513 1508 1502 1495 1488 1482 1476 1469 1463 1458 1451 1446 1440 1433 1429 1425 1420 1415 1410 1408 1404 1402 1399 1397 1396 1395 1394 1394 1393 1393 1393 1392 1391 1389 1388
1528 1527 1529 1529 1526 1525 1523 1519 1514 1509 1503 1497 1489 1482 1474 1468 1461 1454 1448 1442 1436 1429 1423 1417 1413 1409 1404 1399 1396 1393 1390 1387 1386 1385 1384 1384 1384 1384 1385 1385 1385 1385 1384 1383
1528 1528 1528 1524 1524 1522 1518 1513 1508 1503 1498 1491 1483 1475 1468 1460 1452 1446 1439 1432 1426 1419 1412 1406 1401 1396 1391 1387 1384 1380 1377 1376 1375 1375 1374 1374 1375 1375 1376 1377 1378 1379 1379 1378
1529 1530 1529 1524 1521 1518 1513 1508 1502 1496 1489 1483 1477 1468 1460 1452 1445 1437 1429 1422 1415 1408 1401 1394 1388 1382 1378 1374 1371 1367 1365 1365 1364 1364 1365 1365 1366 1367 1367 1370 1370 1371 1371 1372
1532 1529 1526 1522 1518 1513 1509 1503 1497 1490 1483 1475 1467 1461 1453 1444 1436 1428 1420 1412 1404 1396 1389 1381 1375 1369 1364 1361 1358 1355 1354 1353 1354 1355 1356 1357 1358 1359 1361 1362 1363 1363 1364 1366
1530 1526 1522 1518 1513 1509 1503 1497 1490 1483 1476 1469 1461 1453 1445 1436 1428 1419 1411 1402 1393 1385 1377 1369 1362 1357 1352 1349 1346 1344 1343 1343 1344 1346 1347 1349 1351 1352 1354 1355 1356 1357 1358 1361
1526 1523 1519 1514 1508 1503 1497 1491 1483 1476 1469 1461 1454 1446 1438 1429 1419 1410 1401 1391 1382 1374 1366 1358 1352 1346 1342 1338 1336 1335 1334 1335 1337 1339 1341 1342 1344 1346 1348 1349 1351 1352 1353 1357
1522 1518 1514 1509 1504 1498 1492 1485 1478 1470 1462 1455 1447 1439 1431 1422 1412 1401 1391 1382 1373 1363 1355 1348 1342 1337 1333 1331 1329 1328 1328 1330 1332 1334 1336 1337 1339 1341 1343 1344 1345 1347 1350 1353
1518 1513 1509 1504 1499 1493 1487 1481 1473 1465 1457 1449 1441 1432 1423 1413 1403 1393 1383 1373 1364 1355 1348 1341 1336 1331 1328 1326 1324 1324 1324 1325 1327 1330 1331 1333 1335 1337 1338 1339 1341 1344 1347 1352
1516 1511 1507 1502 1496 1489 1482 1475 1468 1461 1452 1444 1435 1426 1417 1406 1396 1385 1375 1365 1357 1349 1342 1337 1332 1328 1325 1323 1322 1322 1322 1324 1325 1327 1329 1330 1332 1333 1334 1336 1338 1341 1345 1352
1512 1508 1503 1498 1492 1486 1478 1471 1464 1456 1448 1440 1431 1421 1412 1401 1391 1380 1370 1360 1352 1344 1339 1334 1330 1326 1324 1322 1321 1321 1322 1323 1324 1325 1327 1328 1329 1330 1331 1333 1336 1340 1345 1352
1508 1504 1499 1493 1488 1481 1474 1467 1460 1452 1444 1436 1426 1417 1407 1396 1386 1376 1366 1358 1350 1344 1338 1333 1329 1327 1325 1323 1322 1323 1323 1323 1324 1324 1325 1326 1327 1328 1329 1331 1334 1339 1346 1353
1504 1500 1495 1489 1483 1477 1471 1464 1456 1448 1440 1432 1423 1414 1404 1393 1383 1373 1363 1355 1348 1342 1337 1333 1330 1328 1326 1325 1323 1323 1323 1323 1323 1323 1323 1323 1324 1326 1328 1330 1334 1340 1347 1354
1500 1496 1491 1485 1479 1473 1467 1461 1454 1446 1438 1429 1420 1411 1401 1391 1381 1371 1363 1356 1348 1342 1337 1334 1332 1329 1327 1326 1325 1324 1323 1322 1322 1322 1322 1323 1324 1326 1328 1331 1336 1342 1349 1356
1497 1492 1487 1482 1476 1470 1464 1458 1452 1444 1435 1427 1418 1410 1401 1391 1382 1372 1363 1355 1348 1343 1338 1336 1333 1331 1328 1327 1326 1325 1324 1323 1322 1322 1323 1324 1325 1327 1330 1335 1339 1345 1351 1358
1493 1489 1484 1479 1473 1468 1462 1456 1449 1441 1434 1426 1418 1410 1401 1391 1381 1373 1365 1357 1350 1344 1340 1337 1334 1331 1329 1328 1327 1325 1324 1324 1323 1324 1324 1326 1328 1331 1334 1338 1343 1348 1354 1360
1489 1485 1481 1476 1471 1466 1460 1454 1447 1440 1432 1425 1418 1409 1401 1393 1384 1375 1366 1359 1352 1347 1342 1339 1336 1333 1331 1329 1328 1326 1326 1325 1325 1326 1327 1330 1333 1336 1339 1343 1348 1352 1357 1363
1486 1483 1479 1475 1470 1465 1460 1453 1446 1440 1432 1425 1417 1409 1401 1393 1385 1377 1369 1362 1356 1350 1346 1342 1339 1336 1334 1332 1330 1329 1329 1329 1329 1331 1332 1335 1338 1341 1344 1348 1352 1356 1361 1365
1484 1481 1477 1473 1469 1464 1459 1453 1447 1440 1434 1427 1419 1411 1404 1396 1388 1380 1373 1366 1360 1355 1351 1347 1344 1341 1339 1337 1335 1335 1335 1335 1336 1337 1339 1341 1344 1347 1350 1354 1357 1361 1364 1368